Time,TemperatureF,DewpointF,PressureIn,WindDirection,WindDirectionDegrees,WindSpeedMPH,WindSpeedGustMPH,Humidity,HourlyPrecipIn,Conditions,Clouds,dailyrainin,SoftwareType,DateUTC
2013-10-13 00:00:00,37.0,27.0,-100.00,NNW,334,1.0,2.0,66,0.00,,,0.00,,2013-10-13 06:00:00,
2013-10-13 00:42:00,37.0,27.0,-100.00,NNW,334,1.0,2.0,66,0.00,,,0.00,,2013-10-13 06:42:00,
2013-10-13 00:52:00,37.0,27.0,-100.00,NNW,334,1.0,2.0,66,0.00,,,0.00,,2013-10-13 06:52:00,
2013-10-13 01:00:00,41.0,25.0,-100.00,WSW,250,5.0,7.0,54,0.00,,,0.00,,2013-10-13 07:00:00,
2013-10-13 01:42:00,41.0,25.0,-100.00,WSW,250,5.0,7.0,54,0.00,,,0.00,,2013-10-13 07:42:00,
2013-10-13 01:52:00,41.0,25.0,-100.00,WSW,250,5.0,7.0,54,0.00,,,0.00,,2013-10-13 07:52:00,
2013-10-13 02:00:00,34.0,27.0,-100.00,West,275,3.0,3.0,74,0.00,,,0.00,,2013-10-13 08:00:00,
2013-10-13 02:42:00,34.0,27.0,-100.00,West,275,3.0,3.0,74,0.00,,,0.00,,2013-10-13 08:42:00,
2013-10-13 02:52:00,34.0,27.0,-100.00,West,275,3.0,3.0,74,0.00,,,0.00,,2013-10-13 08:52:00,
2013-10-13 03:00:00,33.0,26.0,-100.00,SSW,197,1.0,1.0,75,0.00,,,0.00,,2013-10-13 09:00:00,
2013-10-13 03:43:00,33.0,26.0,-100.00,SSW,197,1.0,1.0,75,0.00,,,0.00,,2013-10-13 09:43:00,
2013-10-13 03:53:00,33.0,26.0,-100.00,SSW,197,1.0,1.0,75,0.00,,,0.00,,2013-10-13 09:53:00,
2013-10-13 04:00:00,33.0,26.0,-100.00,SW,223,1.0,1.0,77,0.00,,,0.00,,2013-10-13 10:00:00,
2013-10-13 04:43:00,33.0,26.0,-100.00,SW,223,1.0,1.0,77,0.00,,,0.00,,2013-10-13 10:43:00,
2013-10-13 04:53:00,33.0,26.0,-100.00,SW,223,1.0,1.0,77,0.00,,,0.00,,2013-10-13 10:53:00,
2013-10-13 05:00:00,33.0,26.0,-100.00,WSW,257,4.0,4.0,75,0.00,,,0.00,,2013-10-13 11:00:00,
2013-10-13 05:42:00,33.0,26.0,-100.00,WSW,257,4.0,4.0,75,0.00,,,0.00,,2013-10-13 11:42:00,
2013-10-13 05:52:00,33.0,26.0,-100.00,WSW,257,4.0,4.0,75,0.00,,,0.00,,2013-10-13 11:52:00,
2013-10-13 06:00:00,33.0,27.0,-100.00,SW,226,3.0,3.0,78,0.00,,,0.00,,2013-10-13 12:00:00,
2013-10-13 06:42:00,33.0,27.0,-100.00,SW,226,3.0,3.0,78,0.00,,,0.00,,2013-10-13 12:42:00,
2013-10-13 06:52:00,33.0,27.0,-100.00,SW,226,3.0,3.0,78,0.00,,,0.00,,2013-10-13 12:52:00,
2013-10-13 07:00:00,34.0,28.0,-100.00,WSW,250,3.0,4.0,77,0.00,,,0.00,,2013-10-13 13:00:00,
2013-10-13 07:52:00,34.0,28.0,-100.00,WSW,250,3.0,4.0,77,0.00,,,0.00,,2013-10-13 13:52:00,
2013-10-13 08:00:00,35.0,29.0,-100.00,SW,232,3.0,3.0,78,0.00,,,0.00,,2013-10-13 14:00:00,
2013-10-13 08:42:00,35.0,29.0,-100.00,SW,232,3.0,3.0,78,0.00,,,0.00,,2013-10-13 14:42:00,
2013-10-13 08:52:00,35.0,29.0,-100.00,SW,232,3.0,3.0,78,0.00,,,0.00,,2013-10-13 14:52:00,
2013-10-13 09:00:00,36.0,30.0,-100.00,SW,233,0.0,1.0,78,0.00,,,0.00,,2013-10-13 15:00:00,
2013-10-13 09:43:00,36.0,30.0,-100.00,SW,233,0.0,1.0,78,0.00,,,0.00,,2013-10-13 15:43:00,
2013-10-13 09:54:00,36.0,30.0,-100.00,SW,233,0.0,1.0,78,0.00,,,0.00,,2013-10-13 15:54:00,
2013-10-13 10:00:00,38.0,28.0,-100.00,NE,40,3.0,4.0,66,0.00,,,0.00,,2013-10-13 16:00:00,
2013-10-13 10:42:00,38.0,28.0,-100.00,NE,40,3.0,4.0,66,0.00,,,0.00,,2013-10-13 16:42:00,
2013-10-13 10:54:00,38.0,28.0,-100.00,NE,40,3.0,4.0,66,0.00,,,0.00,,2013-10-13 16:54:00,
2013-10-13 11:00:00,41.0,29.0,-100.00,ENE,70,4.0,6.0,63,0.00,,,0.00,,2013-10-13 17:00:00,
2013-10-13 11:43:00,41.0,29.0,-100.00,ENE,70,4.0,6.0,63,0.00,,,0.00,,2013-10-13 17:43:00,
2013-10-13 11:52:00,41.0,29.0,-100.00,ENE,70,4.0,6.0,63,0.00,,,0.00,,2013-10-13 17:52:00,
2013-10-13 12:00:00,40.0,28.0,-100.00,East,92,8.0,10.0,63,0.00,,,0.00,,2013-10-13 18:00:00,
2013-10-13 12:42:00,40.0,28.0,-100.00,East,92,8.0,10.0,63,0.00,,,0.00,,2013-10-13 18:42:00,
2013-10-13 12:52:00,40.0,28.0,-100.00,East,92,8.0,10.0,63,0.00,,,0.00,,2013-10-13 18:52:00,
2013-10-13 13:00:00,41.0,32.0,-100.00,ENE,76,6.0,8.0,69,0.00,,,0.00,,2013-10-13 19:00:00,
2013-10-13 13:42:00,41.0,32.0,-100.00,ENE,76,6.0,8.0,69,0.00,,,0.00,,2013-10-13 19:42:00,
2013-10-13 13:52:00,41.0,32.0,-100.00,ENE,76,6.0,8.0,69,0.00,,,0.00,,2013-10-13 19:52:00,
2013-10-13 14:00:00,41.0,31.0,-100.00,East,85,6.0,7.0,69,0.00,,,0.00,,2013-10-13 20:00:00,
2013-10-13 14:43:00,41.0,31.0,-100.00,East,85,6.0,7.0,69,0.00,,,0.00,,2013-10-13 20:43:00,
2013-10-13 14:52:00,41.0,31.0,-100.00,East,85,6.0,7.0,69,0.00,,,0.00,,2013-10-13 20:52:00,
2013-10-13 15:00:00,42.0,32.0,-100.00,East,101,2.0,5.0,68,0.00,,,0.00,,2013-10-13 21:00:00,
2013-10-13 15:44:00,42.0,32.0,-100.00,East,101,2.0,5.0,68,0.00,,,0.00,,2013-10-13 21:44:00,
2013-10-13 15:55:00,42.0,32.0,-100.00,East,101,2.0,5.0,68,0.00,,,0.00,,2013-10-13 21:55:00,
2013-10-13 16:00:00,41.0,32.0,-100.00,East,88,4.0,7.0,69,0.00,,,0.00,,2013-10-13 22:00:00,
2013-10-13 16:43:00,41.0,32.0,-100.00,East,88,4.0,7.0,69,0.00,,,0.00,,2013-10-13 22:43:00,
2013-10-13 16:53:00,41.0,32.0,-100.00,East,88,4.0,7.0,69,0.00,,,0.00,,2013-10-13 22:53:00,
2013-10-13 19:00:00,38.0,34.0,-100.00,NNE,17,0.0,0.0,88,0.00,,,0.00,,2013-10-14 01:00:00,
2013-10-13 19:52:00,38.0,34.0,-100.00,NNE,17,0.0,0.0,88,0.00,,,0.00,,2013-10-14 01:52:00,
2013-10-13 20:00:00,37.0,35.0,-100.00,South,178,0.0,1.0,90,0.00,,,0.00,,2013-10-14 02:00:00,
2013-10-13 20:42:00,37.0,35.0,-100.00,South,178,0.0,1.0,90,0.00,,,0.00,,2013-10-14 02:42:00,
2013-10-13 20:52:00,37.0,35.0,-100.00,South,178,0.0,1.0,90,0.00,,,0.00,,2013-10-14 02:52:00,
2013-10-13 21:00:00,36.0,34.0,-100.00,ENE,72,3.0,4.0,94,0.00,,,0.00,,2013-10-14 03:00:00,
2013-10-13 21:44:00,36.0,34.0,-100.00,ENE,72,3.0,4.0,94,0.00,,,0.00,,2013-10-14 03:44:00,
2013-10-13 21:55:00,36.0,34.0,-100.00,ENE,72,3.0,4.0,94,0.00,,,0.00,,2013-10-14 03:55:00,
2013-10-13 22:00:00,35.0,34.0,-100.00,SE,132,0.0,1.0,95,0.00,,,0.00,,2013-10-14 04:00:00,
2013-10-13 22:43:00,35.0,34.0,-100.00,SE,132,0.0,1.0,95,0.00,,,0.00,,2013-10-14 04:43:00,
2013-10-13 22:54:00,35.0,34.0,-100.00,SE,132,0.0,1.0,95,0.00,,,0.00,,2013-10-14 04:54:00,